Погода в Банда-Ачехе

Индонезия     5°33′45″N   95°19′17″E
темп.,
°C
ветер,
м/с
пор.,
м/с
влажн.,
%
обл.,
%
осадки,
мм/ч
давл.,
гПа
погр.,
м
1 марта, пн
пн101:00+25в347614 0.0 1011279
04:00+24в34790 0.0 1010230
07:00+24вюв33800 0.0 1011203
10:00+28св33690 0.0 1013667
13:00+29с556924 0.0 1012745
16:00+28ссв777320 0.0 1009758
19:00+27св787936 0.1 1010576
22:00+26всв688171 0.0 1013463
2 марта, вт
вт201:00+25всв688585 0.0 1012382
04:00+25в578683 0.0 1009314
07:00+24всв688661 0.0 1010325
10:00+29всв56655 0.0 1012845
13:00+31ссв55583 0.0 1011851
16:00+29ссв88670 0.0 1008789
19:00+27св68770 0.0 1010520
22:00+26всв45780 0.0 1012341
3 марта, ср
ср301:00+26в44790 0.0 1011207
04:00+25в34800 0.0 1009185
07:00+25всв46820 0.0 1010274
10:00+29всв56670 0.0 1012878
13:00+31ссв66630 0.0 1009901
16:00+29ссв99702 0.0 1007811
19:00+27св897823 0.0 1009604
22:00+27всв6781100 0.0 1011455
4 марта, чт
чт401:00+26в458471 0.0 1011287
04:00+26в34843 0.1 1009168
07:00+25в46863 0.2 1010270
10:00+29всв45684 0.0 1012817
13:00+30ссз346914 0.0 1010743
16:00+29ссв447068 0.6 1008713
19:00+28св347684 0.9 1009422
22:00+27вюв3382100 1.1 1011209
5 марта, пт
пт501:00+26вюв3382100 1.2 1010147
04:00+27ю33797 0.1 1008313
07:00+27ююв228013 0.1 1010292
10:00+29св11691 0.3 1012593
13:00+28сз237626 1.3 1011524
16:00+29ссз237193 1.6 1008585
19:00+27зсз127696 3.8 1010257
22:00+27с1180100 4.1 1011112